Date,TemperatureHighF,TemperatureAvgF,TemperatureLowF,DewpointHighF,DewpointAvgF,DewpointLowF,HumidityHigh,HumidityAvg,HumidityLow,PressureMaxIn,PressureMinIn,WindSpeedMaxMPH,WindSpeedAvgMPH,GustSpeedMaxMPH,PrecipitationSumIn
2013-1-1,29,26,24,23,22,20,90,85,78,30.21,30.05,2,0,2,0.00
2013-1-2,29,24,22,22,19,17,91,82,67,30.25,30.19,1,0,1,0.00
2013-1-3,23,17,11,18,13,8,89,84,77,30.19,30.05,1,0,1,0.00
2013-1-4,24,21,13,22,18,10,91,88,87,30.07,30.02,0,0,0,0.00
2013-1-5,33,27,24,28,24,22,92,88,79,30.10,29.90,2,0,2,0.00
2013-1-6,35,31,28,30,27,25,94,84,70,29.89,29.74,4,1,4,0.00
2013-1-7,36,33,31,34,31,27,95,91,78,29.77,29.51,3,1,3,0.00
2013-1-8,37,34,29,34,30,26,95,86,63,29.81,29.53,2,1,2,0.07
2013-1-9,43,40,34,37,35,32,95,84,70,29.65,29.40,7,2,7,0.26
2013-1-10,35,30,24,33,24,12,94,80,58,29.66,29.47,3,1,3,0.01
2013-1-11,24,19,10,12,8,4,80,61,47,29.90,29.66,2,1,2,0.00
2013-1-12,23,16,10,17,11,6,88,82,74,29.96,29.86,0,0,0,0.00
2013-1-13,20,16,9,16,11,6,87,83,74,30.03,29.95,1,0,1,0.00
2013-1-14,23,20,17,19,16,13,90,87,80,30.08,29.96,1,0,1,0.00
2013-1-15,27,23,20,23,20,17,92,89,84,30.19,30.07,1,0,1,0.00
2013-1-16,31,22,14,26,19,12,92,88,79,30.19,30.15,1,0,1,0.00
2013-1-17,33,20,12,30,17,10,92,89,81,30.20,29.99,1,0,1,0.00
2013-1-18,35,23,15,30,20,12,92,89,78,29.98,29.87,1,0,1,0.00
2013-1-19,37,23,16,31,20,13,92,87,73,30.08,29.98,1,0,1,0.02
2013-1-20,35,26,18,26,20,15,92,80,67,30.15,30.05,1,0,1,0.01
2013-1-21,37,27,19,28,22,16,88,81,67,30.05,29.92,2,0,2,0.00
2013-1-22,30,22,15,24,18,12,91,86,77,30.00,29.89,1,0,1,0.00
2013-1-23,30,24,18,26,20,15,92,87,78,29.92,29.69,2,0,2,0.00
2013-1-24,41,32,26,33,28,22,95,84,63,29.92,29.68,2,0,2,0.13
2013-1-25,37,33,27,36,31,24,96,92,88,29.90,29.66,1,0,1,0.05
2013-1-26,38,35,30,37,34,29,97,95,89,29.68,29.59,2,0,2,0.20
2013-1-27,37,31,28,30,28,26,95,90,77,29.66,29.61,4,0,4,0.02
2013-1-28,35,30,24,29,26,22,92,86,78,29.64,29.52,2,0,2,0.00
2013-1-29,30,24,20,22,18,15,92,79,57,29.84,29.57,2,0,2,0.00
2013-1-30,37,31,23,32,27,19,90,86,78,29.85,29.74,3,0,3,0.01
2013-1-31,40,36,33,35,32,30,96,87,79,29.92,29.84,2,0,2,0.10
2013-2-1,43,37,31,35,32,28,96,85,67,30.08,29.84,2,0,2,0.01
2013-2-2,44,34,26,32,28,23,93,81,55,30.16,29.97,2,0,2,0.00
2013-2-3,42,31,22,32,27,20,93,85,68,29.97,29.78,2,0,2,0.00
2013-2-4,42,39,35,34,31,30,82,74,67,29.78,29.71,3,1,3,0.00
2013-2-5,42,36,29,35,31,26,89,80,68,29.74,29.52,2,0,2,0.00
2013-2-6,43,37,31,34,30,26,85,76,62,29.83,29.63,3,0,3,0.01
2013-2-7,43,33,27,33,28,24,92,82,65,29.80,29.70,2,0,2,0.00
2013-2-8,41,33,28,32,29,26,93,84,66,29.80,29.73,2,0,2,0.00
2013-2-9,36,28,22,29,25,20,93,87,67,29.87,29.72,0,0,0,0.00
2013-2-10,35,27,19,29,24,18,93,87,73,29.96,29.87,1,0,1,0.00
2013-2-11,33,30,26,27,25,24,91,84,77,29.90,29.85,2,0,2,0.00
2013-2-12,38,34,31,32,30,27,89,83,75,29.93,29.81,2,1,2,0.00
2013-2-13,45,39,28,34,29,22,90,69,41,29.96,29.73,4,1,4,0.00
2013-2-14,42,31,22,30,23,18,89,74,52,30.16,29.96,2,0,2,0.00
2013-2-15,41,34,26,31,27,23,86,77,64,30.21,30.04,1,0,1,0.00
2013-2-16,36,32,26,34,29,24,95,87,78,30.03,29.59,1,0,1,0.02
2013-2-17,36,34,32,34,31,29,94,90,80,29.81,29.58,2,0,2,0.08
2013-2-18,48,33,25,34,26,23,92,78,53,29.83,29.60,2,0,2,0.00
2013-2-19,45,32,25,29,25,21,86,74,51,29.60,29.47,1,0,1,0.00
2013-2-20,39,32,23,33,28,21,93,86,68,29.69,29.57,1,0,1,0.07
2013-2-21,36,29,22,29,25,20,92,84,65,29.74,29.66,3,0,3,0.00
2013-2-22,38,34,31,32,29,27,91,82,69,29.69,29.37,3,1,3,0.03
2013-2-23,38,34,30,32,26,22,88,75,65,29.87,29.36,3,1,3,0.01
2013-2-24,38,30,21,26,24,18,89,76,58,29.97,29.87,2,0,2,0.00
2013-2-25,40,34,31,31,26,24,80,73,62,29.86,29.61,3,0,3,0.00
2013-2-26,38,34,31,30,27,23,89,76,62,30.00,29.74,2,0,2,0.00
2013-2-27,41,31,23,30,24,19,87,77,54,30.00,29.94,2,0,2,0.00
2013-2-28,42,35,28,34,30,25,92,83,71,30.07,29.97,1,0,1,0.01
2013-3-1,48,41,34,41,37,31,95,85,74,30.07,30.02,4,1,4,0.02
2013-3-2,53,44,35,39,36,32,90,75,53,30.05,29.65,3,1,3,0.00
2013-3-3,44,34,25,39,30,22,92,83,63,29.91,29.50,4,1,4,0.04
2013-3-4,45,30,20,29,19,15,88,68,40,30.06,29.92,2,0,2,0.05
2013-3-5,45,30,19,25,18,13,78,62,39,29.93,29.71,2,0,2,0.00
2013-3-6,37,33,30,32,28,23,92,82,70,29.70,29.49,2,0,2,0.03
2013-3-7,44,37,30,34,32,26,95,82,57,29.82,29.56,3,0,3,0.12
2013-3-8,50,35,23,34,27,21,93,74,49,29.81,29.72,2,0,2,0.00
2013-3-9,49,36,24,28,26,21,92,68,40,30.10,29.79,2,0,2,0.00
2013-3-10,48,37,28,32,28,24,86,71,47,30.10,29.91,3,0,3,0.00
2013-3-11,46,38,31,32,24,17,78,58,31,29.96,29.88,5,1,5,0.00
2013-3-12,35,32,29,33,28,20,94,84,66,29.96,29.82,1,0,1,0.12
2013-3-13,53,42,34,47,39,32,96,90,71,29.93,29.85,3,1,3,0.16
2013-3-14,54,43,34,42,38,32,96,81,61,29.92,29.74,2,0,2,0.00
2013-3-15,56,49,40,36,34,30,77,57,43,29.84,29.72,5,1,5,0.00
2013-3-16,49,40,33,40,36,31,95,84,72,29.80,29.44,4,1,4,0.04
2013-3-17,40,34,29,34,30,26,93,85,78,29.57,29.37,2,1,2,0.01
2013-3-18,38,34,28,28,24,21,79,67,52,29.78,29.66,3,1,3,0.02
2013-3-19,48,32,18,31,21,15,91,67,37,30.01,29.77,2,0,2,0.06
2013-3-20,45,36,31,41,32,21,93,83,68,29.75,29.32,4,1,4,0.17
2013-3-21,38,35,30,33,25,19,86,67,47,29.71,29.45,4,1,4,0.02
2013-3-22,50,33,27,26,22,15,82,66,37,29.94,29.72,3,1,3,0.00
2013-3-23,42,28,18,22,16,11,84,61,41,30.05,29.94,2,1,2,0.00
2013-3-24,45,30,21,25,19,16,83,65,43,30.09,29.96,4,0,4,0.00
2013-3-25,48,31,18,23,18,12,82,60,35,29.97,29.79,2,0,2,0.00
2013-3-26,59,38,23,30,23,18,80,59,29,29.80,29.72,2,0,2,0.00
2013-3-27,63,41,27,34,28,22,84,63,33,29.79,29.74,4,0,4,0.00
2013-3-28,62,44,35,45,37,30,94,79,46,29.85,29.79,2,0,2,0.11
2013-3-29,54,42,35,48,38,32,95,86,58,29.96,29.86,3,0,3,0.06
2013-3-30,62,44,28,41,33,26,95,70,37,30.03,29.88,4,1,4,0.00
2013-3-31,74,47,29,39,31,25,90,59,25,29.90,29.77,3,0,3,0.00
2013-4-1,73,51,37,37,31,28,71,50,25,29.82,29.73,4,1,4,0.00
2013-4-2,69,50,31,41,34,27,86,59,34,29.84,29.71,4,1,4,0.00
2013-4-3,65,50,36,46,37,32,89,65,38,29.86,29.78,4,0,4,0.00
2013-4-4,62,47,32,46,36,28,94,71,39,29.82,29.54,2,0,2,0.07
2013-4-5,55,49,45,46,42,38,94,75,59,29.66,29.54,4,1,4,0.00
2013-4-6,54,46,38,44,38,34,90,76,49,29.65,29.58,5,1,5,0.03
2013-4-7,48,38,31,40,34,29,94,86,61,29.63,29.44,4,1,4,0.10
2013-4-8,50,34,26,29,22,14,91,64,36,30.00,29.63,3,2,3,0.01
2013-4-9,51,35,24,27,19,13,75,54,32,30.11,29.97,4,1,4,0.00
2013-4-10,48,39,30,41,32,24,93,79,58,29.96,29.57,4,0,4,0.04
2013-4-11,49,43,38,40,35,28,90,75,45,29.82,29.66,4,1,4,0.01
2013-4-12,54,40,27,37,31,25,92,72,41,29.84,29.42,3,0,3,0.04
2013-4-13,42,38,33,37,32,24,93,79,52,29.53,29.28,5,1,5,0.13
2013-4-14,54,36,28,30,22,13,91,60,30,29.76,29.54,4,1,4,0.02
2013-4-15,52,35,26,16,13,11,56,42,23,29.95,29.76,5,2,5,0.00
2013-4-16,44,34,27,19,14,7,63,45,29,30.11,29.93,3,1,3,0.00
2013-4-17,50,36,20,20,16,10,75,48,29,30.11,29.97,3,0,3,0.00
2013-4-18,56,41,24,30,24,17,79,54,34,30.00,29.92,3,1,3,0.00
2013-4-19,54,44,39,46,38,29,92,81,55,29.91,29.65,4,1,4,0.25
2013-4-20,54,46,39,45,39,33,93,78,46,29.79,29.67,7,1,7,0.31
2013-4-21,38,32,26,36,25,15,92,77,55,30.06,29.79,4,2,4,0.01
2013-4-22,52,35,20,25,19,14,75,54,30,30.20,30.06,3,1,3,0.00
2013-4-23,52,36,22,32,25,18,87,67,43,30.10,29.95,2,0,2,0.00
2013-4-24,60,42,26,39,28,23,91,62,25,30.02,29.74,4,1,4,0.00
2013-4-25,69,52,32,34,31,27,82,48,26,29.80,29.65,6,1,6,0.00
2013-4-26,75,54,33,41,35,28,87,54,21,29.90,29.81,8,1,8,0.00
2013-4-27,63,55,46,40,34,26,77,49,25,29.84,29.73,6,2,6,0.00
2013-4-28,59,53,47,40,36,31,70,53,38,29.78,29.58,5,1,5,0.00
2013-4-29,50,43,34,42,34,28,92,71,53,29.64,29.39,6,1,6,0.13
2013-4-30,50,37,27,31,28,25,92,73,42,30.04,29.64,3,1,3,0.00
2013-5-1,58,41,33,34,29,25,91,67,33,30.30,30.04,3,0,3,0.02
2013-5-2,69,46,26,34,28,22,86,56,27,30.32,30.03,3,1,3,0.00
2013-5-3,64,51,42,47,38,34,87,61,36,30.05,30.01,2,0,2,0.03
2013-5-4,73,53,36,38,33,30,84,53,22,30.08,29.96,3,0,3,0.00
2013-5-5,82,58,40,40,34,29,69,45,16,29.96,29.74,4,1,4,0.00
2013-5-6,83,60,41,42,34,22,70,42,11,29.79,29.62,2,1,2,0.00
2013-5-7,83,62,43,39,34,29,64,39,18,29.84,29.64,5,1,5,0.00
2013-5-8,86,65,47,46,38,31,68,39,21,29.89,29.79,4,1,4,0.00
2013-5-9,84,65,49,48,39,25,70,45,12,29.92,29.82,4,1,4,0.00
2013-5-10,86,66,48,38,35,33,63,36,17,30.09,29.87,5,1,5,0.00
2013-5-11,88,67,51,48,40,34,63,40,19,30.02,29.82,4,1,4,0.00
2013-5-12,83,66,46,52,46,42,84,53,28,29.87,29.72,5,1,5,0.00
2013-5-13,75,62,51,50,47,41,80,59,38,29.77,29.54,12,2,12,0.01
2013-5-14,62,53,41,42,32,24,77,48,25,29.87,29.73,5,1,5,0.00
2013-5-15,73,50,30,41,33,26,86,57,27,29.88,29.71,2,0,2,0.00
2013-5-16,65,52,42,50,42,36,83,69,48,29.74,29.67,3,0,3,0.03
2013-5-17,79,56,40,49,44,38,92,68,29,29.75,29.64,3,0,3,0.03
2013-5-18,63,52,47,54,48,44,94,86,62,29.87,29.74,2,0,2,0.27
2013-5-19,62,52,46,53,48,44,96,86,65,30.00,29.86,2,0,2,0.04
2013-5-20,77,59,47,53,47,44,95,69,33,30.04,29.82,3,0,3,0.00
2013-5-21,87,63,47,50,42,33,81,52,21,29.81,29.48,3,1,3,0.00
2013-5-22,63,54,39,47,40,32,93,64,32,29.81,29.48,5,2,5,0.68
2013-5-23,65,42,33,45,36,31,94,82,47,29.81,29.73,3,0,3,0.63
2013-5-24,66,47,34,45,38,31,94,73,40,29.77,29.64,7,1,7,0.00
2013-5-25,66,52,42,42,38,35,83,62,36,29.79,29.77,2,0,2,0.00
2013-5-26,75,55,34,44,37,30,92,58,23,29.80,29.64,2,0,2,0.00
2013-5-27,69,56,45,49,44,40,86,68,43,29.70,29.58,4,1,4,0.00
2013-5-28,64,54,48,53,48,44,92,80,56,29.61,29.56,2,0,2,0.07
2013-5-29,74,58,44,50,44,36,94,66,27,29.61,29.46,5,1,5,0.01
2013-5-30,59,52,46,51,47,44,95,84,64,29.83,29.62,2,0,2,0.31
2013-5-31,64,53,46,50,45,42,91,75,53,30.04,29.83,2,0,2,0.10
2013-6-1,75,56,41,50,42,35,95,66,28,30.06,29.79,3,0,3,0.01
2013-6-2,73,57,49,48,44,42,81,63,40,29.79,29.62,5,0,5,0.00
2013-6-3,62,53,48,53,48,44,92,82,62,29.90,29.71,2,0,2,0.09
2013-6-4,80,57,40,45,39,33,87,57,24,29.98,29.90,4,0,4,0.00
2013-6-5,84,60,40,49,43,36,86,58,29,29.92,29.74,2,1,2,0.00
2013-6-6,89,68,49,54,50,44,86,57,28,29.83,29.72,4,1,4,0.00
2013-6-7,78,62,51,56,49,44,88,66,32,29.73,29.58,6,1,6,0.00
2013-6-8,81,65,46,51,43,40,91,52,25,29.77,29.69,5,1,5,0.00
2013-6-9,78,62,48,48,39,31,82,51,19,29.74,29.62,4,1,4,0.00
2013-6-10,90,61,38,43,38,33,82,49,18,29.69,29.57,2,0,2,0.00
2013-6-11,89,66,52,52,45,40,91,51,23,29.77,29.60,4,1,4,0.01
2013-6-12,80,58,47,50,47,44,94,70,31,29.84,29.76,2,0,2,0.00
2013-6-13,72,57,49,51,46,40,92,69,41,29.82,29.76,2,1,2,0.02
2013-6-14,63,51,41,50,43,37,88,75,58,29.87,29.80,2,1,2,0.09
2013-6-15,83,61,46,46,44,40,89,60,25,29.88,29.77,3,1,3,0.00
2013-6-16,89,65,44,51,44,39,84,52,21,29.88,29.81,3,1,3,0.00
2013-6-17,92,72,57,60,49,43,67,47,25,29.85,29.69,3,1,3,0.01
2013-6-18,83,67,55,58,51,47,90,61,33,29.68,29.51,4,1,4,0.20
2013-6-19,69,57,50,57,52,48,94,83,64,29.65,29.48,3,1,3,0.49
2013-6-20,54,49,46,51,46,42,96,89,77,29.84,29.51,5,1,5,1.11
2013-6-21,65,54,46,48,45,43,92,74,51,29.87,29.83,3,1,3,0.00
2013-6-22,71,56,40,51,46,38,94,71,44,29.87,29.75,4,1,4,0.00
2013-6-23,77,60,42,52,47,39,91,67,37,29.77,29.54,4,0,4,0.00
2013-6-24,68,60,56,59,53,48,92,80,62,29.54,29.47,2,0,2,0.16
2013-6-25,73,59,54,55,52,47,95,81,45,29.69,29.52,3,1,3,0.36
2013-6-26,73,61,52,56,53,49,93,77,47,29.90,29.69,5,1,5,0.04
2013-6-27,90,66,50,58,53,48,92,67,33,30.02,29.90,2,0,2,0.00
2013-6-28,99,70,51,62,56,47,92,64,30,30.07,29.93,2,0,2,0.00
2013-6-29,87,71,58,64,58,53,86,65,46,29.97,29.83,4,1,4,0.00
2013-6-30,94,74,56,60,56,51,86,58,27,29.92,29.84,2,0,2,0.00
2013-7-1,106,81,66,67,60,53,76,53,19,29.96,29.84,2,1,2,0.00
2013-7-2,98,80,64,69,63,57,81,59,33,29.88,29.73,2,0,2,0.00
2013-7-3,94,74,59,64,56,47,87,59,25,29.78,29.70,3,1,3,0.00
2013-7-4,93,73,54,58,50,45,83,50,22,29.75,29.58,3,1,3,0.00
2013-7-5,91,69,51,54,47,43,80,50,22,29.69,29.56,8,1,8,0.00
2013-7-6,90,66,47,54,47,42,85,56,22,29.75,29.66,2,0,2,0.00
2013-7-7,94,71,58,54,49,41,69,48,18,29.74,29.66,4,1,4,0.00
2013-7-8,87,67,55,66,53,47,90,62,29,29.89,29.68,8,1,8,0.40
2013-7-9,90,67,48,55,49,41,90,59,22,30.00,29.86,4,1,4,0.00
2013-7-10,97,72,51,59,51,46,82,54,19,29.86,29.60,3,1,3,0.00
2013-7-11,83,70,58,58,47,37,90,51,20,29.67,29.60,5,1,5,0.01
2013-7-12,83,63,42,47,40,34,75,48,21,29.73,29.66,4,1,4,0.00
2013-7-13,89,68,55,48,42,35,71,43,17,29.90,29.74,7,1,7,0.00
2013-7-14,91,66,52,50,43,39,70,49,19,29.93,29.81,3,1,3,0.00
2013-7-15,91,82,66,46,39,31,49,25,15,29.84,29.73,4,2,4,0.00
2013-7-16,92,74,59,50,45,39,53,38,21,29.94,29.80,4,2,4,0.00
2013-7-17,90,76,65,63,52,44,58,43,22,29.90,29.78,4,1,4,0.00
2013-7-18,90,72,54,56,50,44,84,52,22,29.95,29.86,4,1,4,0.00
2013-7-19,92,71,51,52,46,40,79,48,18,29.91,29.78,4,1,4,0.00
2013-7-20,95,72,53,56,46,39,77,46,16,29.81,29.64,2,1,2,0.00
2013-7-21,96,73,50,51,42,31,74,41,11,29.69,29.61,3,1,3,0.00
2013-7-22,93,73,52,51,43,32,69,42,13,29.76,29.65,6,1,6,0.00
2013-7-23,103,74,53,54,46,40,75,45,14,29.87,29.77,3,0,3,0.00
2013-7-24,103,78,59,55,47,38,65,39,12,29.85,29.75,4,1,4,0.00
2013-7-25,102,81,67,56,49,40,54,37,14,29.92,29.81,5,1,5,0.00
2013-7-26,102,76,56,57,44,33,74,41,8,29.92,29.76,3,1,3,0.00
2013-7-27,91,71,50,49,38,29,69,37,12,29.79,29.67,4,1,4,0.00
2013-7-28,91,70,50,49,40,36,64,39,18,29.72,29.64,4,1,4,0.00
2013-7-29,90,71,59,50,46,43,58,42,23,29.81,29.73,5,2,5,0.00
2013-7-30,88,70,57,52,47,45,64,47,23,29.93,29.81,4,1,4,0.00
2013-7-31,91,72,54,52,45,33,71,43,15,29.99,29.81,3,1,3,0.00
2013-8-1,78,69,63,58,52,47,78,55,39,29.85,29.74,4,1,4,0.01
2013-8-2,63,58,56,58,56,54,95,91,71,29.91,29.73,2,0,2,0.40
2013-8-3,81,63,54,61,54,49,95,77,44,29.94,29.87,2,0,2,0.01
2013-8-4,88,65,48,58,51,46,92,66,29,29.91,29.79,4,1,4,0.01
2013-8-5,85,66,50,59,52,46,90,65,32,29.82,29.74,2,0,2,0.00
2013-8-6,91,69,50,57,51,46,86,58,25,29.86,29.77,2,0,2,0.00
2013-8-7,91,71,56,57,52,48,80,56,25,29.82,29.73,3,1,3,0.00
2013-8-8,94,75,62,58,54,50,70,50,28,29.85,29.76,6,2,6,0.00
2013-8-9,95,76,63,60,53,51,67,48,28,29.87,29.72,5,2,5,0.00
2013-8-10,96,77,59,59,53,45,77,48,22,29.84,29.74,4,1,4,0.00
2013-8-11,89,74,62,59,54,49,73,52,28,29.84,29.76,3,0,3,0.00
2013-8-12,95,76,62,57,52,44,71,47,21,29.86,29.77,4,1,4,0.00
2013-8-13,91,74,60,59,53,48,84,52,30,29.94,29.81,8,1,8,0.03
2013-8-14,93,71,54,58,50,45,81,53,23,29.89,29.77,3,0,3,0.00
2013-8-15,98,74,58,52,48,44,66,44,20,29.81,29.71,4,1,4,0.00
2013-8-16,93,72,54,54,48,44,76,47,24,29.80,29.74,4,1,4,0.00
2013-8-17,91,73,58,55,49,38,79,47,18,29.85,29.74,4,1,4,0.00
2013-8-18,87,70,52,55,45,36,79,46,18,29.85,29.77,6,1,6,0.00
2013-8-19,86,68,49,52,45,41,80,48,23,29.83,29.71,6,1,6,0.00
2013-8-20,84,68,51,52,41,30,80,45,15,29.84,29.76,6,1,6,0.00
2013-8-21,87,65,44,46,38,26,75,44,13,29.93,29.82,4,0,4,0.00
2013-8-22,86,70,50,48,42,35,64,40,18,29.88,29.69,2,1,2,0.00
2013-8-23,86,68,59,57,53,47,84,60,30,29.74,29.63,2,0,2,0.01
2013-8-24,93,68,49,55,48,44,87,56,21,29.74,29.60,2,0,2,0.00
2013-8-25,85,71,57,56,49,46,76,50,28,29.78,29.61,6,1,6,0.00
2013-8-26,83,68,56,54,50,46,80,56,29,29.86,29.72,4,1,4,0.01
2013-8-27,87,67,47,53,47,42,83,53,25,29.82,29.69,2,0,2,0.00
2013-8-28,84,66,58,61,51,46,85,60,42,29.86,29.70,3,0,3,0.05
2013-8-29,91,65,55,62,55,50,93,74,33,29.88,29.69,3,0,3,0.47
2013-8-30,84,62,51,63,52,46,96,76,34,29.92,29.84,4,1,4,0.00
2013-8-31,90,63,44,55,45,38,91,60,24,29.95,29.81,3,0,3,0.00
2013-9-1,89,68,49,54,47,41,75,52,21,29.83,29.68,3,0,3,0.00
2013-9-2,86,69,58,57,51,47,74,54,34,29.81,29.69,6,1,6,0.00
2013-9-3,71,62,56,60,55,50,87,76,67,29.90,29.78,1,0,1,0.00
2013-9-4,91,69,54,62,55,52,91,66,32,29.92,29.81,3,0,3,0.00
2013-9-5,84,69,62,64,57,52,90,67,47,29.92,29.76,3,0,3,0.09
2013-9-6,82,67,57,64,58,53,95,76,51,29.87,29.79,4,1,4,0.07
2013-9-7,77,65,55,59,54,51,88,70,44,29.89,29.79,5,1,5,0.00
2013-9-8,61,56,51,58,53,48,95,89,82,29.83,29.77,2,0,2,0.35
2013-9-9,74,61,54,59,55,51,95,81,56,29.85,29.78,3,0,3,0.00
2013-9-10,81,63,49,60,52,47,95,72,41,29.90,29.82,3,0,3,0.00
2013-9-11,95,71,56,59,51,47,86,54,27,30.00,29.89,4,1,4,0.00
2013-9-12,95,71,58,55,48,46,71,48,26,29.97,29.75,2,1,2,0.00
2013-9-13,86,67,52,59,51,46,82,60,35,29.75,29.64,2,0,2,0.00
2013-9-14,94,74,61,52,49,46,69,43,25,29.84,29.69,3,1,3,0.00
2013-9-15,92,72,57,52,48,43,62,45,24,29.84,29.59,3,1,3,0.00
2013-9-16,78,66,55,61,52,46,87,62,39,29.66,29.57,6,1,6,0.02
2013-9-17,74,56,41,52,44,38,89,67,37,29.66,29.42,2,0,2,0.28
2013-9-18,53,49,46,50,47,45,94,93,90,29.87,29.48,3,0,3,1.18
2013-9-19,63,52,43,52,46,41,96,82,53,29.97,29.84,2,0,2,0.01
2013-9-20,76,54,40,50,43,38,93,72,39,29.84,29.51,4,0,4,0.00
2013-9-21,67,54,45,51,44,39,85,70,47,29.52,29.46,3,0,3,0.00
2013-9-22,65,51,38,52,42,36,93,74,54,29.52,29.45,5,1,5,0.00
2013-9-23,59,53,48,44,42,40,87,67,51,29.75,29.50,6,1,6,0.02
2013-9-24,53,47,42,48,44,40,94,89,77,29.74,29.57,2,0,2,0.02
2013-9-25,53,46,40,47,42,36,95,86,64,29.65,29.55,5,1,5,0.00
2013-9-26,62,48,34,38,34,29,84,61,37,29.81,29.65,2,0,2,0.00
2013-9-27,52,41,30,40,34,27,92,78,57,29.79,29.69,2,0,2,0.00
2013-9-28,58,51,45,46,42,37,81,71,62,29.71,29.44,5,1,5,0.01
2013-9-29,58,51,46,47,42,38,89,71,60,29.50,29.26,10,1,10,0.06
2013-9-30,51,46,43,43,40,36,93,78,58,29.65,29.29,6,1,6,0.18
2013-10-1,50,45,42,40,37,34,85,75,55,29.83,29.65,2,0,2,0.05
2013-10-2,54,43,35,43,35,32,94,76,52,29.92,29.80,3,0,3,0.02
2013-10-3,52,43,31,34,30,25,78,61,43,30.16,29.82,2,1,2,0.00
2013-10-4,56,39,27,39,29,24,89,69,43,30.25,30.13,2,0,2,0.00
2013-10-5,57,40,28,36,30,25,90,70,37,30.17,30.06,4,0,4,0.00
2013-10-6,64,45,32,42,34,28,92,71,36,30.06,29.77,3,0,3,0.00
2013-10-7,59,44,29,44,35,27,92,75,43,29.77,29.56,3,1,3,0.01
2013-10-8,55,45,40,43,39,35,93,80,64,29.79,29.62,2,0,2,0.06
2013-10-9,68,45,33,43,36,28,93,74,39,29.86,29.67,2,1,2,0.01
2013-10-10,46,38,29,42,36,26,94,90,81,29.70,29.62,1,0,1,0.03
2013-10-11,52,43,35,42,37,32,95,80,52,29.84,29.70,1,0,1,0.01
2013-10-12,52,39,30,39,34,28,93,82,58,29.91,29.82,1,0,1,0.00
2013-10-13,65,43,31,41,33,28,92,72,39,30.01,29.91,2,0,2,0.00
2013-10-14,67,46,31,38,32,26,83,63,34,30.15,30.01,3,0,3,0.00
2013-10-15,52,38,25,36,29,22,91,73,46,30.15,29.94,3,0,3,0.00
2013-10-16,47,39,34,39,34,28,91,83,74,29.96,29.88,1,0,1,0.01
2013-10-17,51,41,33,40,36,30,92,81,62,30.02,29.94,2,0,2,0.00
2013-10-18,53,38,28,40,33,26,93,81,56,30.04,29.90,2,0,2,0.01
2013-10-19,51,37,29,40,33,27,92,85,66,29.92,29.80,0,0,0,0.00
2013-10-20,58,41,31,42,35,29,93,79,53,29.92,29.86,2,0,2,0.00
2013-10-21,62,41,29,44,35,27,93,79,50,30.00,29.92,1,0,1,0.00
2013-10-22,66,42,30,47,36,28,93,81,50,30.01,29.92,1,0,1,0.00
2013-10-23,67,44,32,47,37,30,93,79,48,29.99,29.92,2,0,2,0.00
2013-10-24,63,43,32,46,37,30,93,79,50,29.98,29.88,2,0,2,0.00
2013-10-25,63,41,30,45,35,28,94,81,50,30.05,29.93,3,0,3,0.00
2013-10-26,42,35,29,38,32,27,94,91,85,30.10,29.87,1,0,1,0.00
2013-10-27,49,38,34,40,32,17,95,81,45,29.97,29.67,6,1,6,0.01
2013-10-28,40,33,29,22,16,13,67,50,38,30.01,29.84,7,3,7,0.00
2013-10-29,45,30,20,23,17,12,77,59,42,29.84,29.73,3,1,3,0.00
2013-10-30,44,31,18,29,22,14,87,70,49,29.80,29.74,2,0,2,0.00
2013-10-31,42,36,30,39,33,24,93,87,73,29.87,29.75,3,0,3,0.04
2013-11-1,51,38,31,40,32,27,94,81,48,29.97,29.87,2,0,2,0.01
2013-11-2,42,36,28,40,33,25,94,90,78,29.87,29.40,3,0,3,0.19
2013-11-3,39,35,32,34,31,29,93,85,71,29.72,29.47,4,1,4,0.07
2013-11-4,40,32,28,37,30,26,93,92,86,29.85,29.72,1,0,1,0.06
2013-11-5,37,32,29,30,28,26,92,85,72,29.91,29.86,2,0,2,0.02
2013-11-6,37,32,29,34,31,27,93,93,90,30.09,29.87,1,0,1,0.03
2013-11-7,34,32,28,33,30,26,95,94,93,30.07,29.53,2,0,2,0.02
2013-11-8,41,36,33,38,34,31,96,91,79,29.88,29.58,3,0,3,0.25
2013-11-9,44,35,30,36,31,28,95,87,67,29.97,29.88,1,0,1,0.00
2013-11-10,35,34,33,34,32,31,95,93,90,30.01,29.90,0,0,0,0.66
2013-11-11,41,36,33,39,34,32,96,94,93,30.18,30.02,2,0,2,0.36
2013-11-12,39,38,35,38,36,34,96,95,94,30.12,30.05,0,0,0,0.02
2013-11-13,44,40,37,42,38,35,97,90,79,30.05,29.96,1,0,1,0.02
2013-11-14,46,40,36,39,35,30,93,83,67,29.96,29.58,2,0,2,0.02
2013-11-15,40,36,32,32,31,28,91,80,63,29.58,29.17,4,1,4,0.01
2013-11-16,36,33,30,35,32,28,94,93,90,29.35,29.04,3,1,3,0.13
2013-11-17,38,33,29,34,30,28,95,90,80,29.64,29.36,3,0,3,0.06
2013-11-18,45,42,38,34,33,31,80,69,60,29.68,29.50,4,1,4,0.12
2013-11-19,49,44,39,40,37,32,90,77,63,29.49,29.33,5,1,5,0.06
2013-11-20,38,28,15,36,18,7,90,69,53,30.08,29.44,8,1,8,0.00
2013-11-21,28,17,10,17,9,5,81,71,48,30.32,30.09,2,0,2,0.00
2013-11-22,28,18,10,19,12,6,86,78,63,30.42,30.32,1,0,1,0.00
2013-11-23,30,20,12,20,14,8,87,78,63,30.37,30.07,2,0,2,0.00
2013-11-24,33,22,14,24,17,10,89,82,65,30.08,30.00,2,0,2,0.00
2013-11-25,34,24,15,26,19,12,89,82,71,30.18,30.08,2,0,2,0.00
2013-11-26,36,26,19,29,21,17,91,84,72,30.16,29.94,2,0,2,0.00
2013-11-27,30,25,22,25,22,18,91,88,83,29.98,29.92,2,0,2,0.00
2013-11-28,26,25,24,25,23,22,93,92,88,29.96,29.92,2,0,2,0.00
2013-11-29,30,28,26,28,26,24,95,93,93,29.97,29.93,1,0,1,0.00
2013-11-30,33,31,29,32,30,28,95,94,93,29.98,29.90,0,0,0,0.00
2013-12-1,38,36,33,37,35,32,96,96,94,29.88,29.42,5,1,5,0.66
2013-12-2,39,28,15,38,25,11,96,91,85,29.79,29.33,4,2,4,0.04
2013-12-3,18,14,12,11,7,4,86,73,56,29.98,29.80,4,1,4,0.00
2013-12-4,16,10,3,7,3,-2,80,73,61,30.01,29.96,2,0,2,0.00
2013-12-5,13,7,2,4,0,-6,82,75,63,30.03,29.94,4,1,4,0.00
2013-12-6,6,0,-4,-7,-11,-14,63,59,54,30.11,30.03,5,2,5,0.00
2013-12-7,3,-5,-11,-6,-13,-17,76,68,61,30.05,29.90,2,0,2,0.00
2013-12-8,8,0,-12,0,-5,-18,83,79,71,30.08,29.95,0,0,0,0.00
2013-12-9,12,10,4,8,5,0,86,83,80,30.09,29.95,0,0,0,0.00
2013-12-10,23,17,12,18,13,8,88,86,84,30.07,29.91,0,0,0,0.00
2013-12-11,28,24,19,25,21,16,90,89,87,30.10,30.00,4,1,4,0.00
2013-12-12,33,27,21,28,24,19,91,89,83,30.01,29.81,3,0,3,0.00
2013-12-13,34,32,30,32,30,28,94,93,92,30.03,29.81,3,1,3,0.00
2013-12-14,39,34,32,36,32,31,96,93,86,30.06,29.95,4,1,4,0.33
2013-12-15,39,34,32,34,32,30,95,92,84,29.96,29.88,5,1,5,0.06
2013-12-16,44,37,27,34,31,24,91,79,63,30.07,29.89,4,1,4,0.00
2013-12-17,40,30,23,32,26,21,93,86,68,30.06,29.65,1,0,1,0.00
2013-12-18,38,33,20,34,29,17,94,87,76,29.67,29.53,3,1,3,0.04
2013-12-19,18,14,11,16,9,5,90,80,71,29.93,29.69,5,1,5,0.00
2013-12-20,23,20,15,21,16,11,91,88,83,29.78,29.40,2,0,2,0.00
2013-12-21,24,20,15,22,17,13,91,89,88,29.78,29.44,0,0,0,0.00
2013-12-22,31,26,22,28,23,20,92,90,86,29.98,29.77,1,0,1,0.00
2013-12-23,36,31,27,35,29,25,96,93,91,29.97,29.66,2,0,2,0.08
2013-12-24,36,34,29,33,29,26,95,85,74,30.19,29.83,3,0,3,0.10
2013-12-25,28,23,14,25,20,12,92,88,79,30.22,30.07,2,0,2,0.00
2013-12-26,32,29,26,30,27,24,93,91,89,30.11,29.97,2,0,2,0.00
2013-12-27,34,26,16,31,23,13,93,91,88,30.00,29.70,2,0,2,0.00
2013-12-28,35,30,27,30,26,24,92,84,72,30.07,29.75,2,0,2,0.00
2013-12-29,33,30,26,29,27,23,93,88,83,30.07,29.90,3,1,3,0.00
2013-12-30,36,32,29,32,30,27,94,90,80,29.95,29.74,3,0,3,0.00
2013-12-31,39,36,34,36,34,31,96,92,85,29.93,29.73,4,1,4,0.10
2014-1-1,37,31,25,31,27,24,94,88,76,30.10,29.94,2,0,2,0.01
2014-1-2,35,31,27,34,29,25,94,92,88,30.05,29.51,4,0,4,0.00